International Skating Union - Official Site

ISU World Cup Harbin
November 11-13, 2016

Draw | Lap Times | Index | World Cup

Referee: Trevis  BOYD  (CAN)
Starter: Yong-Seok  OH  (KOR)
StartTime: EndTime: Air Temp: Ice Temp: Humidity:
20:04 20:25 13.5 ℃ -6.8 ℃ 45.0%
Result Team Pursuit Ladies
Rankings as of Nov 13 2016 1:28PM
Rank: No.: Team: Nation: Time: Behind: Points:
Total 7
1 2 Netherlands (272) Ireen Wüst (266) Marrit Leenstra (261) Antoinette de Jong (264) Marije Joling NED NED 3:04.010.5 - 19.03 - (19.0)
1.0 - 33.49 - (14.4)
1.5 - 47.84 - (14.3)
2.0 - 1:02.52 - (14.6)
2.5 - 1:17.34 - (14.8)
3.0 - 1:32.25 - (14.9)
3.5 - 1:47.46 - (15.2)
4.0 - 2:02.57 - (15.1)
4.5 - 2:17.68 - (15.1)
5.0 - 2:33.06 - (15.3)
5.5 - 2:48.52 - (15.4)
6.0 - 3:04.01 - (15.4)
100
2 3 Russia (288) Natalya Voronina (285) Elizaveta Kazelina (284) Olga Graf (287) Yekaterina Shikhova RUS RUS 3:06.840.5 - 19.45 - (19.4)
1.0 - 34.07 - (14.6)
1.5 - 48.90 - (14.8)
2.0 - 1:03.80 - (14.8)
2.5 - 1:18.95 - (15.1)
3.0 - 1:33.96 - (15.0)
3.5 - 1:49.36 - (15.4)
4.0 - 2:04.63 - (15.2)
4.5 - 2:20.04 - (15.4)
5.0 - 2:35.85 - (15.8)
5.5 - 2:51.40 - (15.5)
6.0 - 3:06.84 - (15.4)
2.83 80
3 7 Korea (257) Ji-Woo Park (256) Seon-Yeong Noh (252) Bo-Reum Kim KOR KOR 3:07.910.5 - 19.46 - (19.4)
1.0 - 34.45 - (14.9)
1.5 - 49.47 - (15.0)
2.0 - 1:04.68 - (15.2)
2.5 - 1:19.74 - (15.0)
3.0 - 1:35.04 - (15.3)
3.5 - 1:50.24 - (15.1)
4.0 - 2:05.62 - (15.3)
4.5 - 2:21.22 - (15.5)
5.0 - 2:36.64 - (15.4)
5.5 - 2:52.17 - (15.5)
6.0 - 3:07.91 - (15.7)
3.90 70
4 5 Germany (236) Claudia Pechstein (232) Roxanne Dufter (234) Bente Kraus (233) Gabriele Hirschbichler GER GER 3:08.210.5 - 19.88 - (19.8)
1.0 - 34.28 - (14.4)
1.5 - 48.83 - (14.5)
2.0 - 1:03.65 - (14.8)
2.5 - 1:18.81 - (15.1)
3.0 - 1:34.21 - (15.3)
3.5 - 1:49.68 - (15.4)
4.0 - 2:05.21 - (15.5)
4.5 - 2:21.15 - (15.9)
5.0 - 2:36.95 - (15.7)
5.5 - 2:52.63 - (15.6)
6.0 - 3:08.21 - (15.5)
4.20 60
5 4 Poland (275) Katarzyna Bachleda-Curus (278) Katarzyna Wozniak (279) Luiza Zlotkowska (276) Natalia Czerwonka POL POL 3:09.580.5 - 19.37 - (19.3)
1.0 - 34.22 - (14.8)
1.5 - 49.11 - (14.8)
2.0 - 1:04.34 - (15.2)
2.5 - 1:19.34 - (15.0)
3.0 - 1:34.54 - (15.2)
3.5 - 1:49.84 - (15.2)
4.0 - 2:05.35 - (15.5)
4.5 - 2:20.91 - (15.5)
5.0 - 2:36.93 - (16.0)
5.5 - 2:53.18 - (16.2)
6.0 - 3:09.58 - (16.3)
5.57 50
6 8 Czech Republic (230) Nikola Zdráhalová (229) Martina Sábliková (228) Natalie Kerschbaummayr (227) Eliska Drimalova CZE CZE 3:13.180.5 - 20.17 - (20.1)
1.0 - 35.44 - (15.2)
1.5 - 50.87 - (15.4)
2.0 - 1:06.48 - (15.6)
2.5 - 1:22.19 - (15.7)
3.0 - 1:37.98 - (15.7)
3.5 - 1:53.74 - (15.7)
4.0 - 2:09.35 - (15.6)
4.5 - 2:25.08 - (15.7)
5.0 - 2:40.88 - (15.7)
5.5 - 2:57.01 - (16.1)
6.0 - 3:13.18 - (16.1)
9.17 45
7 6 China (219) Jing Liu (214) Mei Han (215) Jiachen Hao (216) Dan Li CHN CHN 3:13.870.5 - 19.35 - (19.3)
1.0 - 34.42 - (15.0)
1.5 - 49.38 - (14.9)
2.0 - 1:04.76 - (15.3)
2.5 - 1:20.38 - (15.6)
3.0 - 1:36.30 - (15.9)
3.5 - 1:51.89 - (15.5)
4.0 - 2:07.88 - (15.9)
4.5 - 2:23.80 - (15.9)
5.0 - 2:40.24 - (16.4)
5.5 - 2:57.15 - (16.9)
6.0 - 3:13.87 - (16.7)
9.86 40